| time (UTC) | temp C | wind direction | speed KPH | gust KPH | rain 1hr cm | rain 24hr cm | rain mn cm | humidity % | barometer mb |
| 20260903132556 | 25 | 0 | 0.0 | 0.0 | 0.00 | 0.23 | 0.23 | 40 | 1019.2 |
| 20260903131617 | 25 | 0 | 0.0 | 0.0 | 0.00 | 0.23 | 0.23 | 40 | 1018.9 |
| 20260903130557 | 25 | 0 | 0.0 | 0.0 | 0.00 | 0.23 | 0.23 | 39 | 1019.2 |
| 20260903125556 | 26 | 0 | 0.0 | 0.0 | 0.00 | 0.23 | 0.23 | 38 | 1019.2 |
| 20260903124615 | 25 | 0 | 0.0 | 0.0 | 0.00 | 0.23 | 0.23 | 38 | 1019.0 |
| 20260903123557 | 25 | 0 | 0.0 | 0.0 | 0.00 | 0.23 | 0.23 | 40 | 1019.3 |
| 20260903122557 | 25 | 0 | 0.0 | 0.0 | 0.00 | 0.23 | 0.23 | 40 | 1019.2 |
| 20260903121617 | 25 | 0 | 0.0 | 0.0 | 0.00 | 0.23 | 0.23 | 40 | 1019.3 |
| 20260903120556 | 24 | 0 | 0.0 | 0.0 | 0.00 | 0.23 | 0.23 | 40 | 1019.3 |
| 20260903115557 | 25 | 0 | 0.0 | 0.0 | 0.00 | 0.23 | 0.23 | 40 | 1019.3 |
| 20260903114616 | 24 | 0 | 0.0 | 0.0 | 0.00 | 0.23 | 0.23 | 42 | 1019.6 |
| 20260903113557 | 24 | 0 | 0.0 | 0.0 | 0.00 | 0.23 | 0.23 | 41 | 1019.8 |
| 20260903112557 | 24 | 0 | 0.0 | 0.0 | 0.00 | 0.23 | 0.23 | 41 | 1019.7 |
| 20260903111618 | 25 | 0 | 0.0 | 0.0 | 0.00 | 0.23 | 0.23 | 40 | 1019.8 |
| 20260903110557 | 25 | 0 | 0.0 | 0.0 | 0.00 | 0.23 | 0.23 | 40 | 1020.0 |
| 20260903105557 | 25 | 135 | 0.0 | 1.6 | 0.00 | 0.23 | 0.23 | 40 | 1020.0 |
| 20260903104617 | 25 | 0 | 0.0 | 0.0 | 0.00 | 0.23 | 0.23 | 40 | 1020.3 |
| 20260903103557 | 25 | 0 | 0.0 | 0.0 | 0.00 | 0.23 | 0.23 | 42 | 1020.4 |
| 20260903102558 | 25 | 0 | 0.0 | 0.0 | 0.00 | 0.23 | 0.23 | 40 | 1020.4 |
| 20260903101619 | 25 | 0 | 0.0 | 0.0 | 0.00 | 0.23 | 0.23 | 42 | 1020.5 |
| 20260903100558 | 24 | 0 | 0.0 | 0.0 | 0.00 | 0.23 | 0.23 | 41 | 1020.7 |
| 20260903095559 | 25 | 0 | 0.0 | 0.0 | 0.00 | 0.23 | 0.23 | 42 | 1020.6 |
| 20260903094618 | 24 | 0 | 0.0 | 0.0 | 0.00 | 0.23 | 0.23 | 42 | 1020.6 |
| 20260903093558 | 24 | 0 | 0.0 | 0.0 | 0.00 | 0.23 | 0.23 | 43 | 1020.7 |
| 20260903092558 | 24 | 0 | 0.0 | 0.0 | 0.00 | 0.23 | 0.23 | 42 | 1020.6 |
| 20260903091621 | 23 | 0 | 0.0 | 0.0 | 0.00 | 0.23 | 0.23 | 46 | 1020.6 |
| 20260903090558 | 24 | 0 | 0.0 | 0.0 | 0.00 | 0.23 | 0.23 | 45 | 1020.6 |
| 20260903085558 | 25 | 0 | 0.0 | 0.0 | 0.00 | 0.23 | 0.23 | 44 | 1020.6 |
| 20260903084618 | 23 | 0 | 0.0 | 0.0 | 0.00 | 0.23 | 0.23 | 54 | 1021.0 |
| 20260903083600 | 22 | 0 | 0.0 | 0.0 | 0.00 | 0.23 | 0.23 | 52 | 1021.1 |
| 20260903082559 | 23 | 0 | 0.0 | 0.0 | 0.00 | 0.23 | 0.23 | 52 | 1020.9 |
| 20260903081615 | 23 | 0 | 0.0 | 0.0 | 0.00 | 0.23 | 0.23 | 53 | 1020.8 |
| 20260903080559 | 23 | 0 | 0.0 | 0.0 | 0.00 | 0.23 | 0.23 | 56 | 1021.0 |
| 20260903075559 | 22 | 0 | 0.0 | 0.0 | 0.00 | 0.23 | 0.23 | 57 | 1021.0 |
| 20260903074610 | 22 | 0 | 0.0 | 0.0 | 0.00 | 0.23 | 0.23 | 60 | 1021.1 |
| 20260903073559 | 22 | 0 | 0.0 | 0.0 | 0.00 | 0.23 | 0.23 | 58 | 1021.2 |
| 20260903072600 | 22 | 0 | 0.0 | 0.0 | 0.00 | 0.23 | 0.23 | 63 | 1021.2 |
| 20260903071611 | 21 | 0 | 0.0 | 0.0 | 0.00 | 0.23 | 0.23 | 65 | 1021.2 |
| 20260903070600 | 22 | 0 | 0.0 | 0.0 | 0.00 | 0.23 | 0.23 | 67 | 1021.1 |
| 20260903065600 | 21 | 0 | 0.0 | 0.0 | 0.00 | 0.23 | 0.23 | 68 | 1021.1 |
| 20260903064610 | 21 | 0 | 0.0 | 0.0 | 0.00 | 0.23 | 0.23 | 73 | 1021.2 |
| 20260903063559 | 18 | 0 | 0.0 | 0.0 | 0.00 | 0.23 | 0.23 | 78 | 1021.1 |
| 20260903062600 | 17 | 0 | 0.0 | 0.0 | 0.00 | 0.23 | 0.23 | 81 | 1021.0 |
| 20260903061612 | 16 | 0 | 0.0 | 0.0 | 0.00 | 0.23 | 0.23 | 87 | 1021.0 |
| 20260903060600 | 16 | 0 | 0.0 | 0.0 | 0.00 | 0.23 | 0.23 | 90 | 1021.0 |
| 20260903055600 | 16 | 0 | 0.0 | 0.0 | 0.00 | 0.23 | 0.23 | 90 | 1020.9 |
| 20260903054611 | 16 | 0 | 0.0 | 0.0 | 0.00 | 0.23 | 0.23 | 90 | 1020.9 |
| 20260903053601 | 16 | 0 | 0.0 | 0.0 | 0.00 | 0.23 | 0.23 | 92 | 1020.8 |
| 20260903052601 | 16 | 0 | 0.0 | 0.0 | 0.00 | 0.23 | 0.23 | 97 | 1020.9 |
| 20260903051613 | 15 | 0 | 0.0 | 0.0 | 0.00 | 0.23 | 0.23 | 98 | 1020.7 |
| 20260903050600 | 14 | 0 | 0.0 | 0.0 | 0.00 | 0.23 | 0.23 | 97 | 1020.7 |
| 20260903045601 | 14 | 0 | 0.0 | 0.0 | 0.00 | 0.23 | 0.23 | 97 | 1020.9 |
| 20260903044612 | 14 | 0 | 0.0 | 0.0 | 0.00 | 0.23 | 0.23 | 97 | 1020.8 |
| 20260903043601 | 14 | 0 | 0.0 | 0.0 | 0.00 | 0.23 | 0.23 | 97 | 1020.8 |
| 20260903042601 | 14 | 0 | 0.0 | 0.0 | 0.00 | 0.23 | 0.23 | 96 | 1020.8 |
| 20260903041622 | 14 | 0 | 0.0 | 0.0 | 0.00 | 0.23 | 0.23 | 96 | 1020.7 |
| 20260903040601 | 14 | 0 | 0.0 | 0.0 | 0.00 | 0.23 | 0.23 | 96 | 1020.6 |
| 20260903035601 | 14 | 0 | 0.0 | 0.0 | 0.00 | 0.23 | 0.23 | 97 | 1020.7 |
| 20260903034621 | 14 | 0 | 0.0 | 0.0 | 0.00 | 0.23 | 0.23 | 97 | 1020.7 |
| 20260903033602 | 14 | 0 | 0.0 | 0.0 | 0.00 | 0.23 | 0.23 | 97 | 1020.6 |
| 20260903032602 | 14 | 0 | 0.0 | 0.0 | 0.00 | 0.23 | 0.23 | 97 | 1020.5 |
| 20260903031624 | 14 | 0 | 0.0 | 0.0 | 0.00 | 0.23 | 0.23 | 97 | 1020.7 |
| 20260903030602 | 14 | 0 | 0.0 | 0.0 | 0.00 | 0.23 | 0.23 | 97 | 1020.6 |
| 20260903025602 | 14 | 0 | 0.0 | 0.0 | 0.00 | 0.23 | 0.23 | 97 | 1020.8 |
| 20260903024622 | 14 | 0 | 0.0 | 0.0 | 0.00 | 0.23 | 0.23 | 97 | 1020.7 |
| 20260903023602 | 14 | 0 | 0.0 | 0.0 | 0.00 | 0.23 | 0.23 | 97 | 1020.6 |
| 20260903022602 | 14 | 0 | 0.0 | 0.0 | 0.00 | 0.23 | 0.23 | 97 | 1020.4 |
| 20260903021625 | 14 | 0 | 0.0 | 0.0 | 0.00 | 0.23 | 0.23 | 97 | 1020.4 |
| 20260903020602 | 14 | 181 | 0.0 | 1.6 | 0.00 | 0.23 | 0.23 | 97 | 1020.5 |
| 20260903015603 | 14 | 0 | 0.0 | 0.0 | 0.00 | 0.23 | 0.23 | 97 | 1020.4 |
| 20260903014623 | 14 | 0 | 0.0 | 0.0 | 0.00 | 0.23 | 0.23 | 97 | 1020.4 |
| 20260903013603 | 14 | 0 | 0.0 | 0.0 | 0.00 | 0.23 | 0.23 | 97 | 1020.7 |
| 20260903012602 | 14 | 0 | 0.0 | 0.0 | 0.00 | 0.23 | 0.23 | 97 | 1020.6 |
| 20260903011625 | 14 | 0 | 0.0 | 0.0 | 0.00 | 0.23 | 0.23 | 97 | 1020.7 |
| 20260903010603 | 14 | 0 | 0.0 | 0.0 | 0.00 | 0.23 | 0.23 | 96 | 1020.7 |
| 20260903005603 | 14 | 0 | 0.0 | 0.0 | 0.00 | 0.23 | 0.23 | 96 | 1020.7 |
| 20260903004622 | 14 | 0 | 0.0 | 0.0 | 0.00 | 0.23 | 0.23 | 96 | 1020.7 |
| 20260903003603 | 14 | 0 | 0.0 | 0.0 | 0.00 | 0.23 | 0.23 | 96 | 1020.6 |
| 20260903002604 | 14 | 0 | 0.0 | 0.0 | 0.00 | 0.23 | 0.23 | 95 | 1020.5 |
| 20260903001626 | 14 | 0 | 0.0 | 0.0 | 0.00 | 0.23 | 0.23 | 95 | 1020.5 |
| 20260903000604 | 14 | 0 | 0.0 | 0.0 | 0.00 | 0.23 | 0.23 | 95 | 1020.5 |
| 20260902235604 | 14 | 0 | 0.0 | 0.0 | 0.00 | 0.23 | 0.23 | 96 | 1020.7 |
| 20260902234624 | 14 | 0 | 0.0 | 0.0 | 0.00 | 0.23 | 0.23 | 96 | 1020.6 |
| 20260902233604 | 14 | 0 | 0.0 | 0.0 | 0.00 | 0.23 | 0.23 | 96 | 1020.5 |
| 20260902232603 | 14 | 0 | 0.0 | 0.0 | 0.00 | 0.23 | 0.23 | 96 | 1020.5 |
| 20260902231626 | 14 | 0 | 0.0 | 0.0 | 0.00 | 0.23 | 0.23 | 96 | 1020.6 |
| 20260902230604 | 14 | 0 | 0.0 | 0.0 | 0.00 | 0.23 | 0.23 | 95 | 1020.7 |
| 20260902225604 | 15 | 0 | 0.0 | 0.0 | 0.00 | 0.23 | 0.23 | 95 | 1020.6 |
| 20260902224624 | 14 | 0 | 0.0 | 0.0 | 0.00 | 0.23 | 0.23 | 95 | 1020.7 |
| 20260902223604 | 15 | 0 | 0.0 | 0.0 | 0.00 | 0.23 | 0.23 | 95 | 1020.7 |
| 20260902222604 | 15 | 0 | 0.0 | 0.0 | 0.00 | 0.23 | 0.23 | 94 | 1020.8 |
| 20260902221626 | 15 | 0 | 0.0 | 0.0 | 0.00 | 0.23 | 0.23 | 94 | 1020.7 |
| 20260902220604 | 15 | 0 | 0.0 | 0.0 | 0.00 | 0.23 | 0.23 | 93 | 1020.7 |
| 20260902215605 | 15 | 0 | 0.0 | 0.0 | 0.00 | 0.23 | 0.23 | 93 | 1020.6 |
| 20260902214625 | 15 | 0 | 0.0 | 0.0 | 0.00 | 0.23 | 0.23 | 92 | 1020.6 |
| 20260902213605 | 15 | 0 | 0.0 | 0.0 | 0.00 | 0.23 | 0.23 | 92 | 1020.7 |
| 20260902212605 | 15 | 0 | 0.0 | 0.0 | 0.00 | 0.23 | 0.23 | 92 | 1020.5 |
| 20260902211627 | 15 | 0 | 0.0 | 0.0 | 0.00 | 0.23 | 0.23 | 91 | 1020.5 |
| 20260902210605 | 15 | 0 | 0.0 | 0.0 | 0.00 | 0.23 | 0.23 | 91 | 1020.4 |
| 20260902205605 | 16 | 0 | 0.0 | 0.0 | 0.00 | 0.23 | 0.23 | 91 | 1020.6 |
| 20260902204624 | 16 | 0 | 0.0 | 0.0 | 0.00 | 0.23 | 0.23 | 91 | 1020.4 |
| 20260902203606 | 16 | 0 | 0.0 | 0.0 | 0.00 | 0.23 | 0.23 | 91 | 1020.4 |
| 20260902202605 | 16 | 90 | 0.0 | 1.6 | 0.00 | 0.23 | 0.23 | 91 | 1020.3 |
| 20260902201625 | 16 | 0 | 0.0 | 0.0 | 0.00 | 0.23 | 0.23 | 91 | 1020.7 |
| 20260902200606 | 16 | 0 | 0.0 | 0.0 | 0.00 | 0.23 | 0.23 | 92 | 1020.7 |
| 20260902195606 | 16 | 0 | 0.0 | 0.0 | 0.00 | 0.23 | 0.23 | 92 | 1020.1 |
| 20260902194617 | 16 | 0 | 0.0 | 0.0 | 0.00 | 0.23 | 0.23 | 91 | 1020.0 |
| 20260902193606 | 16 | 0 | 0.0 | 0.0 | 0.00 | 0.23 | 0.23 | 90 | 1020.1 |
| 20260902192606 | 16 | 0 | 0.0 | 0.0 | 0.00 | 0.23 | 0.23 | 90 | 1020.2 |
| 20260902191618 | 16 | 0 | 0.0 | 0.0 | 0.03 | 0.23 | 0.23 | 88 | 1020.0 |
| 20260902190606 | 16 | 0 | 0.0 | 0.0 | 0.10 | 0.23 | 0.23 | 85 | 1019.8 |
| 20260902185607 | 17 | 0 | 0.0 | 0.0 | 0.20 | 0.23 | 0.23 | 85 | 1019.8 |
| 20260902184617 | 17 | 0 | 0.0 | 0.0 | 0.23 | 0.23 | 0.23 | 82 | 1019.6 |
| 20260902183606 | 17 | 0 | 0.0 | 0.0 | 0.23 | 0.23 | 0.23 | 75 | 1019.6 |
| 20260902182607 | 17 | 0 | 0.0 | 0.0 | 0.23 | 0.23 | 0.23 | 74 | 1019.9 |
| 20260902181619 | 18 | 0 | 0.0 | 0.0 | 0.20 | 0.20 | 0.20 | 74 | 1020.1 |
| 20260902180607 | 19 | 0 | 0.0 | 0.0 | 0.15 | 0.15 | 0.15 | 67 | 1020.0 |
| 20260902175606 | 21 | 0 | 0.0 | 0.0 | 0.00 | 0.00 | 0.00 | 64 | 1019.5 |
| 20260902174617 | 21 | 0 | 0.0 | 0.0 | 0.00 | 0.00 | 0.00 | 57 | 1019.0 |
| 20260902173608 | 21 | 0 | 0.0 | 0.0 | 0.00 | 0.00 | 0.00 | 54 | 1018.9 |
| 20260902172607 | 22 | 0 | 0.0 | 0.0 | 0.00 | 0.00 | 0.00 | 52 | 1018.9 |
| 20260902171619 | 22 | 0 | 0.0 | 0.0 | 0.00 | 0.00 | 0.00 | 49 | 1018.8 |
| 20260902170607 | 23 | 0 | 0.0 | 0.0 | 0.00 | 0.00 | 0.00 | 47 | 1018.8 |
| 20260902165607 | 24 | 0 | 0.0 | 0.0 | 0.00 | 0.00 | 0.00 | 43 | 1018.9 |
| 20260902164618 | 25 | 0 | 0.0 | 0.0 | 0.00 | 0.00 | 0.00 | 40 | 1018.9 |
| 20260902163607 | 26 | 0 | 0.0 | 0.0 | 0.00 | 0.00 | 0.00 | 40 | 1018.9 |
| 20260902162607 | 26 | 0 | 0.0 | 0.0 | 0.00 | 0.00 | 0.00 | 39 | 1018.9 |
| 20260902161628 | 26 | 0 | 0.0 | 0.0 | 0.00 | 0.00 | 0.00 | 35 | 1018.8 |
| 20260902160608 | 27 | 0 | 0.0 | 0.0 | 0.00 | 0.00 | 0.00 | 31 | 1018.9 |
| 20260902155607 | 27 | 0 | 0.0 | 0.0 | 0.00 | 0.00 | 0.00 | 31 | 1018.9 |
| 20260902154627 | 28 | 0 | 0.0 | 0.0 | 0.00 | 0.00 | 0.00 | 31 | 1019.0 |
| 20260902153608 | 28 | 0 | 0.0 | 0.0 | 0.00 | 0.00 | 0.00 | 31 | 1018.8 |
| 20260902152609 | 27 | 0 | 0.0 | 0.0 | 0.00 | 0.00 | 0.00 | 37 | 1019.0 |
| 20260902151632 | 25 | 0 | 0.0 | 0.0 | 0.00 | 0.00 | 0.00 | 40 | 1019.2 |
| 20260902150609 | 26 | 0 | 0.0 | 0.0 | 0.00 | 0.00 | 0.00 | 36 | 1019.3 |
| 20260902145609 | 27 | 0 | 0.0 | 0.0 | 0.00 | 0.00 | 0.00 | 35 | 1019.3 |
| 20260902144626 | 27 | 0 | 0.0 | 0.0 | 0.00 | 0.00 | 0.00 | 31 | 1019.5 |
| 20260902143608 | 28 | 0 | 0.0 | 0.0 | 0.00 | 0.00 | 0.00 | 30 | 1019.4 |
| 20260902142609 | 28 | 0 | 0.0 | 0.0 | 0.00 | 0.00 | 0.00 | 31 | 1019.5 |
| 20260902141629 | 28 | 0 | 0.0 | 0.0 | 0.00 | 0.00 | 0.00 | 31 | 1019.6 |
| 20260902140608 | 27 | 0 | 0.0 | 0.0 | 0.00 | 0.00 | 0.00 | 31 | 1019.8 |
| 20260902135609 | 28 | 0 | 0.0 | 0.0 | 0.00 | 0.00 | 0.00 | 30 | 1019.7 |
| 20260902134627 | 27 | 0 | 0.0 | 0.0 | 0.00 | 0.00 | 0.00 | 31 | 1019.7 |
| 20260902133610 | 27 | 0 | 0.0 | 0.0 | 0.00 | 0.00 | 0.00 | 34 | 1019.8 |
| 20260902132609 | 27 | 0 | 0.0 | 0.0 | 0.00 | 0.00 | 0.00 | 30 | 1019.9 |